Time,TemperatureF,DewpointF,PressureIn,WindDirection,WindDirectionDegrees,WindSpeedMPH,WindSpeedGustMPH,Humidity,HourlyPrecipIn,Conditions,Clouds,dailyrainin,SoftwareType,DateUTC
2013-01-28 00:04:00,59.2,32.9,29.74,SSE,161,8.2,12.5,37,-99.99,,,-99.99,WSDL version 420,2013-01-28 06:04:00,
2013-01-28 00:10:00,59.2,33.0,29.74,SSE,158,9.5,15.4,37,-99.99,,,-99.99,WSDL version 420,2013-01-28 06:10:00,
2013-01-28 00:16:00,59.2,32.9,29.74,SSE,160,8.1,15.4,37,-99.99,,,-99.99,WSDL version 420,2013-01-28 06:16:00,
2013-01-28 00:22:00,59.2,32.9,29.74,SE,146,8.3,13.4,37,-99.99,,,-99.99,WSDL version 420,2013-01-28 06:22:00,
2013-01-28 00:28:00,59.3,33.1,29.74,South,180,7.1,12.8,37,-99.99,,,-99.99,WSDL version 420,2013-01-28 06:28:00,
2013-01-28 00:34:00,59.3,33.0,29.74,SSE,160,6.6,12.3,37,-99.99,,,-99.99,WSDL version 420,2013-01-28 06:34:00,
2013-01-28 00:40:00,59.2,32.9,29.74,SSE,155,6.9,10.5,37,-99.99,,,-99.99,WSDL version 420,2013-01-28 06:40:00,
2013-01-28 00:46:00,59.3,33.1,29.74,SSE,148,6.6,11.0,37,-99.99,,,-99.99,WSDL version 420,2013-01-28 06:46:00,
2013-01-28 00:52:00,59.4,33.1,29.74,SSE,155,6.6,10.3,37,-99.99,,,-99.99,WSDL version 420,2013-01-28 06:52:00,
2013-01-28 00:58:00,59.4,33.1,29.74,South,169,6.5,11.0,37,-99.99,,,-99.99,WSDL version 420,2013-01-28 06:58:00,
2013-01-28 01:04:00,59.4,33.1,29.74,SSE,155,6.5,13.2,37,-99.99,,,-99.99,WSDL version 420,2013-01-28 07:04:00,
2013-01-28 01:10:00,59.4,32.4,29.74,SSE,164,6.3,13.2,36,-99.99,,,-99.99,WSDL version 420,2013-01-28 07:10:00,
2013-01-28 01:16:00,59.4,32.4,29.77,SSE,158,5.7,10.5,36,-99.99,,,-99.99,WSDL version 420,2013-01-28 07:16:00,
2013-01-28 01:22:00,59.4,32.4,29.77,SSE,154,5.7,11.0,36,-99.99,,,-99.99,WSDL version 420,2013-01-28 07:22:00,
2013-01-28 01:28:00,59.4,32.5,29.77,SSE,154,6.3,11.0,36,-99.99,,,-99.99,WSDL version 420,2013-01-28 07:28:00,
2013-01-28 01:34:00,59.5,32.6,29.74,SSE,154,4.9,9.4,36,-99.99,,,-99.99,WSDL version 420,2013-01-28 07:34:00,
2013-01-28 01:40:00,59.5,32.6,29.74,SSE,165,5.1,7.8,36,-99.99,,,-99.99,WSDL version 420,2013-01-28 07:40:00,
2013-01-28 01:46:00,59.5,32.6,29.74,SSE,165,5.0,10.5,36,-99.99,,,-99.99,WSDL version 420,2013-01-28 07:46:00,
2013-01-28 01:52:00,59.7,32.7,29.74,SSE,166,4.6,9.6,36,-99.99,,,-99.99,WSDL version 420,2013-01-28 07:52:00,
2013-01-28 01:58:00,59.7,32.7,29.74,SSE,158,5.0,10.7,36,-99.99,,,-99.99,WSDL version 420,2013-01-28 07:58:00,
2013-01-28 02:04:00,59.7,32.7,29.77,SSE,158,6.0,10.3,36,-99.99,,,-99.99,WSDL version 420,2013-01-28 08:04:00,
2013-01-28 02:10:00,59.7,32.7,29.77,SSE,158,5.4,11.9,36,-99.99,,,-99.99,WSDL version 420,2013-01-28 08:10:00,
2013-01-28 02:16:00,59.7,32.7,29.74,SSE,154,6.3,11.9,36,-99.99,,,-99.99,WSDL version 420,2013-01-28 08:16:00,
2013-01-28 02:22:00,59.7,32.7,29.74,SSE,152,6.0,10.3,36,-99.99,,,-99.99,WSDL version 420,2013-01-28 08:22:00,
2013-01-28 02:28:00,59.7,32.7,29.74,SSE,160,7.9,11.0,36,-99.99,,,-99.99,WSDL version 420,2013-01-28 08:28:00,
2013-01-28 02:34:00,59.7,32.7,29.74,SSE,161,5.6,10.5,36,-99.99,,,-99.99,WSDL version 420,2013-01-28 08:34:00,
2013-01-28 02:40:00,59.7,32.7,29.74,SSE,149,4.0,10.1,36,-99.99,,,-99.99,WSDL version 420,2013-01-28 08:40:00,
2013-01-28 02:46:00,59.8,32.8,29.77,SSE,158,6.1,8.1,36,-99.99,,,-99.99,WSDL version 420,2013-01-28 08:46:00,
2013-01-28 02:52:00,59.9,32.4,29.77,SSE,150,5.9,8.5,35,-99.99,,,-99.99,WSDL version 420,2013-01-28 08:52:00,
2013-01-28 02:58:00,60.0,32.3,29.77,SSE,158,4.8,12.1,35,-99.99,,,-99.99,WSDL version 420,2013-01-28 08:58:00,
2013-01-28 03:04:00,60.1,32.4,29.77,SSE,161,6.7,12.1,35,-99.99,,,-99.99,WSDL version 420,2013-01-28 09:04:00,
2013-01-28 03:10:00,60.1,32.4,29.77,SSE,154,8.5,10.5,35,-99.99,,,-99.99,WSDL version 420,2013-01-28 09:10:00,
2013-01-28 03:16:00,60.2,32.5,29.74,SSW,193,6.9,13.0,35,-99.99,,,-99.99,WSDL version 420,2013-01-28 09:16:00,
2013-01-28 03:22:00,60.3,32.5,29.74,SSE,149,5.6,12.1,35,-99.99,,,-99.99,WSDL version 420,2013-01-28 09:22:00,
2013-01-28 03:28:00,60.3,32.5,29.74,SSE,160,6.3,13.2,35,-99.99,,,-99.99,WSDL version 420,2013-01-28 09:28:00,
2013-01-28 03:34:00,60.4,32.7,29.74,South,176,6.9,12.8,35,-99.99,,,-99.99,WSDL version 420,2013-01-28 09:34:00,
2013-01-28 03:40:00,60.6,32.8,29.74,SSE,160,5.3,12.3,35,-99.99,,,-99.99,WSDL version 420,2013-01-28 09:40:00,
2013-01-28 03:46:00,60.6,32.8,29.77,South,169,7.2,10.7,35,-99.99,,,-99.99,WSDL version 420,2013-01-28 09:46:00,
2013-01-28 03:52:00,60.6,32.8,29.77,SSE,154,5.1,11.0,35,-99.99,,,-99.99,WSDL version 420,2013-01-28 09:52:00,
2013-01-28 03:58:00,60.6,32.8,29.77,SSE,164,7.3,10.3,35,-99.99,,,-99.99,WSDL version 420,2013-01-28 09:58:00,
2013-01-28 04:04:00,60.6,32.8,29.77,SSE,161,6.2,10.3,35,-99.99,,,-99.99,WSDL version 420,2013-01-28 10:04:00,
2013-01-28 04:10:00,60.6,32.8,29.77,SSE,161,5.7,8.7,35,-99.99,,,-99.99,WSDL version 420,2013-01-28 10:10:00,
2013-01-28 04:16:00,60.6,32.8,29.74,SSE,154,6.5,14.5,35,-99.99,,,-99.99,WSDL version 420,2013-01-28 10:16:00,
2013-01-28 04:22:00,60.6,32.8,29.74,SSE,155,9.3,14.5,35,-99.99,,,-99.99,WSDL version 420,2013-01-28 10:22:00,
2013-01-28 04:28:00,60.6,32.8,29.74,SSE,153,7.0,14.3,35,-99.99,,,-99.99,WSDL version 420,2013-01-28 10:28:00,
2013-01-28 04:34:00,60.5,32.7,29.74,SSE,151,6.8,12.5,35,-99.99,,,-99.99,WSDL version 420,2013-01-28 10:34:00,
2013-01-28 04:40:00,60.4,32.9,29.74,SSE,168,6.7,14.8,36,-99.99,,,-99.99,WSDL version 420,2013-01-28 10:40:00,
2013-01-28 04:46:00,60.4,33.4,29.77,South,170,5.2,14.8,36,-99.99,,,-99.99,WSDL version 420,2013-01-28 10:46:00,
2013-01-28 04:52:00,60.2,33.9,29.77,SSE,164,5.8,8.5,37,-99.99,,,-99.99,WSDL version 420,2013-01-28 10:52:00,
2013-01-28 04:58:00,59.8,34.2,29.77,SSE,164,5.9,11.4,38,-99.99,,,-99.99,WSDL version 420,2013-01-28 10:58:00,
2013-01-28 05:04:00,59.6,34.6,29.74,SSE,152,7.0,10.5,39,-99.99,,,-99.99,WSDL version 420,2013-01-28 11:04:00,
2013-01-28 05:10:00,59.5,34.7,29.74,SSE,154,6.2,13.9,40,-99.99,,,-99.99,WSDL version 420,2013-01-28 11:10:00,
2013-01-28 05:16:00,59.5,35.0,29.74,SSE,163,6.8,10.7,40,-99.99,,,-99.99,WSDL version 420,2013-01-28 11:16:00,
2013-01-28 05:22:00,59.5,35.2,29.74,SSE,154,6.2,10.7,40,-99.99,,,-99.99,WSDL version 420,2013-01-28 11:22:00,
2013-01-28 05:28:00,59.5,35.2,29.74,SSE,154,5.8,10.1,40,-99.99,,,-99.99,WSDL version 420,2013-01-28 11:28:00,
2013-01-28 05:34:00,59.5,35.2,29.74,SSE,158,8.4,12.8,40,-99.99,,,-99.99,WSDL version 420,2013-01-28 11:34:00,
2013-01-28 05:40:00,59.5,35.2,29.74,SSE,158,8.7,13.2,40,-99.99,,,-99.99,WSDL version 420,2013-01-28 11:40:00,
2013-01-28 05:46:00,59.6,35.2,29.74,SSE,163,7.9,13.2,40,-99.99,,,-99.99,WSDL version 420,2013-01-28 11:46:00,
2013-01-28 05:52:00,59.7,35.5,29.74,SSE,155,7.8,14.5,41,-99.99,,,-99.99,WSDL version 420,2013-01-28 11:52:00,
2013-01-28 05:58:00,59.7,36.0,29.74,SSE,160,6.8,14.5,41,-99.99,,,-99.99,WSDL version 420,2013-01-28 11:58:00,
2013-01-28 06:04:00,59.7,36.0,29.74,South,174,7.8,12.3,41,-99.99,,,-99.99,WSDL version 420,2013-01-28 12:04:00,
2013-01-28 06:10:00,59.6,36.8,29.74,SSE,148,7.1,13.2,43,-99.99,,,-99.99,WSDL version 420,2013-01-28 12:10:00,
2013-01-28 06:16:00,59.4,37.3,29.77,SSE,161,8.5,13.6,44,-99.99,,,-99.99,WSDL version 420,2013-01-28 12:16:00,
2013-01-28 06:22:00,59.2,37.8,29.77,SSE,154,6.8,13.6,45,-99.99,,,-99.99,WSDL version 420,2013-01-28 12:22:00,
2013-01-28 06:28:00,59.1,37.8,29.77,SSE,158,5.5,12.8,45,-99.99,,,-99.99,WSDL version 420,2013-01-28 12:28:00,
2013-01-28 06:34:00,58.9,38.1,29.77,SSE,158,8.2,13.0,46,-99.99,,,-99.99,WSDL version 420,2013-01-28 12:34:00,
2013-01-28 06:40:00,58.8,38.5,29.77,SSE,158,6.0,13.0,46,-99.99,,,-99.99,WSDL version 420,2013-01-28 12:40:00,
2013-01-28 06:46:00,58.8,38.5,29.77,SSE,158,6.6,13.2,47,-99.99,,,-99.99,WSDL version 420,2013-01-28 12:46:00,
2013-01-28 06:52:00,58.8,38.7,29.77,SSE,161,7.0,12.5,47,-99.99,,,-99.99,WSDL version 420,2013-01-28 12:52:00,
2013-01-28 06:58:00,58.7,38.5,29.77,SSE,155,4.6,11.0,47,-99.99,,,-99.99,WSDL version 420,2013-01-28 12:58:00,
2013-01-28 07:04:00,58.6,38.7,29.77,SSW,195,6.9,10.1,48,-99.99,,,-99.99,WSDL version 420,2013-01-28 13:04:00,
2013-01-28 07:10:00,58.8,38.6,29.77,SSE,158,6.3,10.3,47,-99.99,,,-99.99,WSDL version 420,2013-01-28 13:10:00,
2013-01-28 07:16:00,58.8,38.8,29.77,South,176,4.8,12.5,48,-99.99,,,-99.99,WSDL version 420,2013-01-28 13:16:00,
2013-01-28 07:22:00,58.8,38.7,29.77,SE,146,6.3,12.5,47,-99.99,,,-99.99,WSDL version 420,2013-01-28 13:22:00,
2013-01-28 07:28:00,58.8,38.8,29.77,South,175,6.1,11.0,48,-99.99,,,-99.99,WSDL version 420,2013-01-28 13:28:00,
2013-01-28 07:34:00,58.8,38.7,29.77,SSE,160,4.1,11.0,47,-99.99,,,-99.99,WSDL version 420,2013-01-28 13:34:00,
2013-01-28 07:40:00,58.9,38.7,29.77,SSE,164,6.3,10.3,47,-99.99,,,-99.99,WSDL version 420,2013-01-28 13:40:00,
2013-01-28 07:46:00,59.0,38.8,29.77,SE,143,6.3,10.3,47,-99.99,,,-99.99,WSDL version 420,2013-01-28 13:46:00,
2013-01-28 07:52:00,59.2,39.0,29.77,SSE,158,5.7,9.8,47,-99.99,,,-99.99,WSDL version 420,2013-01-28 13:52:00,
2013-01-28 07:58:00,59.2,39.0,29.77,SSE,149,3.6,8.5,47,-99.99,,,-99.99,WSDL version 420,2013-01-28 13:58:00,
2013-01-28 08:04:00,59.3,39.1,29.77,SSE,148,7.7,12.5,47,-99.99,,,-99.99,WSDL version 420,2013-01-28 14:04:00,
2013-01-28 08:10:00,59.4,39.1,29.77,SSE,158,6.3,12.5,47,-99.99,,,-99.99,WSDL version 420,2013-01-28 14:10:00,
2013-01-28 08:16:00,59.5,39.3,29.80,SSE,154,6.6,11.0,47,-99.99,,,-99.99,WSDL version 420,2013-01-28 14:16:00,
2013-01-28 08:22:00,59.5,39.3,29.80,SSE,163,7.1,12.3,47,-99.99,,,-99.99,WSDL version 420,2013-01-28 14:22:00,
2013-01-28 08:28:00,59.6,39.4,29.80,SSE,166,5.9,12.3,47,-99.99,,,-99.99,WSDL version 420,2013-01-28 14:28:00,
2013-01-28 08:34:00,59.7,39.5,29.77,SSE,166,6.6,10.7,47,-99.99,,,-99.99,WSDL version 420,2013-01-28 14:34:00,
2013-01-28 08:40:00,59.7,39.5,29.77,SSE,158,7.3,12.3,47,-99.99,,,-99.99,WSDL version 420,2013-01-28 14:40:00,
2013-01-28 08:46:00,59.9,39.6,29.77,SSE,163,6.5,10.7,47,-99.99,,,-99.99,WSDL version 420,2013-01-28 14:46:00,
2013-01-28 08:52:00,59.9,39.7,29.77,SSE,158,7.0,9.8,47,-99.99,,,-99.99,WSDL version 420,2013-01-28 14:52:00,
2013-01-28 08:58:00,60.1,39.8,29.77,SSE,158,7.3,10.5,47,-99.99,,,-99.99,WSDL version 420,2013-01-28 14:58:00,
2013-01-28 09:04:00,60.1,39.8,29.77,SSE,154,8.6,12.3,47,-99.99,,,-99.99,WSDL version 420,2013-01-28 15:04:00,
2013-01-28 09:10:00,60.1,39.8,29.77,SE,145,7.6,12.3,47,-99.99,,,-99.99,WSDL version 420,2013-01-28 15:10:00,
2013-01-28 09:16:00,60.1,39.9,29.77,SSE,162,6.5,12.3,47,-99.99,,,-99.99,WSDL version 420,2013-01-28 15:16:00,
2013-01-28 09:22:00,60.1,39.8,29.77,South,174,7.1,12.3,47,-99.99,,,-99.99,WSDL version 420,2013-01-28 15:22:00,
2013-01-28 09:28:00,60.1,39.8,29.77,SSE,161,7.3,11.0,47,-99.99,,,-99.99,WSDL version 420,2013-01-28 15:28:00,
2013-01-28 09:34:00,60.3,40.0,29.77,SSE,155,7.6,11.0,47,-99.99,,,-99.99,WSDL version 420,2013-01-28 15:34:00,
2013-01-28 09:40:00,60.4,40.1,29.77,South,170,7.6,13.0,47,-99.99,,,-99.99,WSDL version 420,2013-01-28 15:40:00,
2013-01-28 09:46:00,60.4,40.1,29.77,SSE,158,8.5,13.0,47,-99.99,,,-99.99,WSDL version 420,2013-01-28 15:46:00,
2013-01-28 09:52:00,60.4,40.1,29.77,South,180,8.5,14.8,47,-99.99,,,-99.99,WSDL version 420,2013-01-28 15:52:00,
2013-01-28 09:58:00,60.4,40.1,29.77,SSE,153,4.9,14.8,47,-99.99,,,-99.99,WSDL version 420,2013-01-28 15:58:00,
2013-01-28 10:04:00,60.5,40.2,29.80,SE,146,5.6,12.5,47,-99.99,,,-99.99,WSDL version 420,2013-01-28 16:04:00,
2013-01-28 10:10:00,60.6,40.3,29.80,SE,146,6.6,12.5,47,-99.99,,,-99.99,WSDL version 420,2013-01-28 16:10:00,
2013-01-28 10:16:00,60.6,40.3,29.80,SE,146,4.9,12.1,47,-99.99,,,-99.99,WSDL version 420,2013-01-28 16:16:00,
2013-01-28 10:22:00,60.6,40.3,29.80,South,170,8.3,11.0,47,-99.99,,,-99.99,WSDL version 420,2013-01-28 16:22:00,
2013-01-28 10:28:00,60.6,40.3,29.80,SSE,149,6.6,11.0,47,-99.99,,,-99.99,WSDL version 420,2013-01-28 16:28:00,
2013-01-28 10:34:00,60.8,40.1,29.77,SSE,158,6.4,8.7,46,-99.99,,,-99.99,WSDL version 420,2013-01-28 16:34:00,
2013-01-28 10:40:00,60.8,40.5,29.77,SSE,151,7.3,12.1,47,-99.99,,,-99.99,WSDL version 420,2013-01-28 16:40:00,
2013-01-28 10:46:00,61.1,40.7,29.77,SSE,152,7.5,12.1,47,-99.99,,,-99.99,WSDL version 420,2013-01-28 16:46:00,
2013-01-28 10:52:00,61.3,40.9,29.77,SSE,163,5.8,11.0,47,-99.99,,,-99.99,WSDL version 420,2013-01-28 16:52:00,
2013-01-28 10:58:00,61.6,40.8,29.77,SE,146,7.0,12.1,46,-99.99,,,-99.99,WSDL version 420,2013-01-28 16:58:00,
2013-01-28 11:04:00,61.9,40.9,29.77,SSE,149,5.9,9.6,46,-99.99,,,-99.99,WSDL version 420,2013-01-28 17:04:00,
2013-01-28 11:10:00,61.9,40.9,29.77,SSE,154,6.2,10.1,46,-99.99,,,-99.99,WSDL version 420,2013-01-28 17:10:00,
2013-01-28 11:16:00,62.1,40.6,29.80,SSE,152,6.8,10.1,45,0.00,,,0.00,WSDL version 420,2013-01-28 17:16:00,
2013-01-28 11:22:00,62.4,40.8,29.80,SSE,166,8.0,13.2,45,0.00,,,0.00,WSDL version 420,2013-01-28 17:22:00,
2013-01-28 11:28:00,62.8,40.9,29.77,SE,146,7.0,13.2,44,0.00,,,0.00,WSDL version 420,2013-01-28 17:28:00,
2013-01-28 11:34:00,63.2,40.9,29.77,SSE,152,5.5,11.0,44,0.00,,,0.00,WSDL version 420,2013-01-28 17:34:00,
2013-01-28 11:40:00,63.5,41.2,29.77,SSE,154,4.1,8.7,44,0.00,,,0.00,WSDL version 420,2013-01-28 17:40:00,
2013-01-28 11:46:00,63.7,40.9,29.77,SSE,167,6.4,10.3,43,0.00,,,0.00,WSDL version 420,2013-01-28 17:46:00,
2013-01-28 11:52:00,63.7,40.8,29.77,SE,141,5.0,10.1,43,0.00,,,0.00,WSDL version 420,2013-01-28 17:52:00,
2013-01-28 11:58:00,63.7,40.8,29.77,SSE,152,4.9,10.5,43,0.00,,,0.00,WSDL version 420,2013-01-28 17:58:00,
2013-01-28 12:04:00,63.8,40.9,29.77,South,180,4.1,12.3,43,0.00,,,0.00,WSDL version 420,2013-01-28 18:04:00,
2013-01-28 12:10:00,64.0,40.8,29.77,SSW,203,6.0,15.2,42,0.00,,,0.00,WSDL version 420,2013-01-28 18:10:00,
2013-01-28 12:16:00,64.0,40.5,29.74,South,186,5.2,15.2,42,0.00,,,0.00,WSDL version 420,2013-01-28 18:16:00,
2013-01-28 12:22:00,64.2,40.6,29.74,South,173,5.0,11.0,42,0.00,,,0.00,WSDL version 420,2013-01-28 18:22:00,
2013-01-28 12:28:00,64.3,40.5,29.74,SSW,199,3.2,11.0,41,0.00,,,0.00,WSDL version 420,2013-01-28 18:28:00,
2013-01-28 12:34:00,64.4,40.2,29.74,South,174,4.9,10.5,41,0.00,,,0.00,WSDL version 420,2013-01-28 18:34:00,
2013-01-28 12:40:00,64.4,40.2,29.74,SSE,164,4.0,8.1,41,0.00,,,0.00,WSDL version 420,2013-01-28 18:40:00,
2013-01-28 12:46:00,64.8,40.7,29.74,South,176,2.8,6.5,41,0.00,,,0.00,WSDL version 420,2013-01-28 18:46:00,
2013-01-28 12:52:00,65.2,40.8,29.74,South,177,6.2,10.3,40,0.00,,,0.00,WSDL version 420,2013-01-28 18:52:00,
2013-01-28 12:58:00,65.8,41.1,29.74,South,188,4.1,10.3,40,0.00,,,0.00,WSDL version 420,2013-01-28 18:58:00,
2013-01-28 13:04:00,66.2,40.6,29.74,South,169,5.6,8.7,39,0.00,,,0.00,WSDL version 420,2013-01-28 19:04:00,
2013-01-28 13:10:00,66.6,40.0,29.74,SSE,150,6.3,9.8,37,0.00,,,0.00,WSDL version 420,2013-01-28 19:10:00,
2013-01-28 13:16:00,66.7,39.6,29.71,South,177,5.0,12.3,37,0.00,,,0.00,WSDL version 420,2013-01-28 19:16:00,
2013-01-28 13:22:00,66.9,39.5,29.71,South,180,4.9,13.2,36,0.00,,,0.00,WSDL version 420,2013-01-28 19:22:00,
2013-01-28 13:28:00,67.5,39.4,29.71,SSW,199,5.2,13.2,35,0.00,,,0.00,WSDL version 420,2013-01-28 19:28:00,
2013-01-28 13:34:00,68.0,39.4,29.71,SSW,199,3.8,17.0,35,0.00,,,0.00,WSDL version 420,2013-01-28 19:34:00,
2013-01-28 13:40:00,68.5,39.0,29.71,South,184,5.0,11.0,34,0.00,,,0.00,WSDL version 420,2013-01-28 19:40:00,
2013-01-28 13:46:00,68.7,38.7,29.71,South,171,5.5,12.1,33,0.00,,,0.00,WSDL version 420,2013-01-28 19:46:00,
2013-01-28 13:52:00,68.9,38.7,29.71,SSW,209,8.8,18.8,33,0.00,,,0.00,WSDL version 420,2013-01-28 19:52:00,
2013-01-28 13:58:00,69.4,38.9,29.71,South,180,6.5,18.8,32,0.00,,,0.00,WSDL version 420,2013-01-28 19:58:00,
2013-01-28 14:04:00,69.3,38.2,29.71,South,191,4.4,13.2,32,0.00,,,0.00,WSDL version 420,2013-01-28 20:04:00,
2013-01-28 14:10:00,69.4,38.3,29.71,South,188,6.8,12.5,32,0.00,,,0.00,WSDL version 420,2013-01-28 20:10:00,
2013-01-28 14:16:00,69.4,38.3,29.71,SSW,206,6.0,12.8,32,0.00,,,0.00,WSDL version 420,2013-01-28 20:16:00,
2013-01-28 14:22:00,69.7,38.6,29.71,SSW,194,5.9,11.2,32,0.00,,,0.00,WSDL version 420,2013-01-28 20:22:00,
2013-01-28 14:28:00,69.9,38.2,29.71,WSW,245,5.4,15.9,30,0.00,,,0.00,WSDL version 420,2013-01-28 20:28:00,
2013-01-28 14:34:00,70.0,38.0,29.71,SSW,195,6.2,14.8,31,0.00,,,0.00,WSDL version 420,2013-01-28 20:34:00,
2013-01-28 14:40:00,69.9,37.6,29.71,SSW,212,8.2,14.8,30,0.00,,,0.00,WSDL version 420,2013-01-28 20:40:00,
2013-01-28 14:46:00,69.8,37.7,29.71,South,176,6.6,13.0,31,0.00,,,0.00,WSDL version 420,2013-01-28 20:46:00,
2013-01-28 14:52:00,69.9,37.1,29.71,South,186,6.8,15.7,30,0.00,,,0.00,WSDL version 420,2013-01-28 20:52:00,
2013-01-28 14:58:00,70.2,37.0,29.71,South,180,6.3,15.7,30,0.00,,,0.00,WSDL version 420,2013-01-28 20:58:00,
2013-01-28 15:04:00,70.5,37.3,29.71,WSW,253,6.0,9.8,29,0.00,,,0.00,WSDL version 420,2013-01-28 21:04:00,
2013-01-28 15:10:00,70.6,36.9,29.71,South,177,6.7,11.0,29,0.00,,,0.00,WSDL version 420,2013-01-28 21:10:00,
2013-01-28 15:16:00,71.0,36.7,29.71,SSW,203,6.0,12.1,27,0.00,,,0.00,WSDL version 420,2013-01-28 21:16:00,
2013-01-28 15:22:00,70.9,35.3,29.71,SSE,161,6.5,15.4,27,0.00,,,0.00,WSDL version 420,2013-01-28 21:22:00,
2013-01-28 15:28:00,71.3,35.7,29.71,South,176,4.9,15.4,27,0.00,,,0.00,WSDL version 420,2013-01-28 21:28:00,
2013-01-28 15:34:00,71.5,35.4,29.71,SSE,161,6.1,10.3,26,0.00,,,0.00,WSDL version 420,2013-01-28 21:34:00,
2013-01-28 15:40:00,71.6,34.9,29.71,SSE,165,5.9,12.8,26,0.00,,,0.00,WSDL version 420,2013-01-28 21:40:00,
2013-01-28 15:46:00,71.9,34.2,29.71,SSW,209,5.4,12.8,25,0.00,,,0.00,WSDL version 420,2013-01-28 21:46:00,
2013-01-28 15:52:00,72.2,33.9,29.71,South,191,5.1,11.0,24,0.00,,,0.00,WSDL version 420,2013-01-28 21:52:00,
2013-01-28 15:58:00,72.4,33.6,29.71,SSW,211,4.0,13.4,24,0.00,,,0.00,WSDL version 420,2013-01-28 21:58:00,
2013-01-28 16:04:00,72.2,33.5,29.71,SSW,203,6.2,15.9,24,0.00,,,0.00,WSDL version 420,2013-01-28 22:04:00,
2013-01-28 16:10:00,72.1,33.4,29.71,SW,216,5.1,15.9,24,0.00,,,0.00,WSDL version 420,2013-01-28 22:10:00,
2013-01-28 16:16:00,71.8,33.1,29.71,SSW,194,6.2,13.0,24,0.00,,,0.00,WSDL version 420,2013-01-28 22:16:00,
2013-01-28 16:22:00,71.5,33.5,29.71,SW,221,3.9,13.0,25,0.00,,,0.00,WSDL version 420,2013-01-28 22:22:00,
2013-01-28 16:28:00,71.0,33.5,29.71,SSE,149,6.6,14.8,25,0.00,,,0.00,WSDL version 420,2013-01-28 22:28:00,
2013-01-28 16:34:00,70.6,33.1,29.71,SW,228,3.8,10.1,25,0.00,,,0.00,WSDL version 420,2013-01-28 22:34:00,
2013-01-28 16:40:00,70.2,33.1,29.71,South,180,4.6,10.1,26,0.00,,,0.00,WSDL version 420,2013-01-28 22:40:00,
2013-01-28 16:46:00,70.1,33.6,29.71,SSW,193,6.7,12.8,26,0.00,,,0.00,WSDL version 420,2013-01-28 22:46:00,
2013-01-28 16:52:00,70.1,33.6,29.71,SW,216,4.1,12.8,26,0.00,,,0.00,WSDL version 420,2013-01-28 22:52:00,
2013-01-28 16:58:00,69.8,33.6,29.71,South,180,3.4,10.7,27,0.00,,,0.00,WSDL version 420,2013-01-28 22:58:00,
2013-01-28 17:04:00,69.5,34.1,29.71,South,174,3.7,10.7,27,0.00,,,0.00,WSDL version 420,2013-01-28 23:04:00,
2013-01-28 17:10:00,69.1,34.5,29.71,South,186,4.7,9.8,28,0.00,,,0.00,WSDL version 420,2013-01-28 23:10:00,
2013-01-28 17:16:00,68.8,34.7,29.71,South,177,5.3,9.8,29,0.00,,,0.00,WSDL version 420,2013-01-28 23:16:00,
2013-01-28 17:22:00,68.5,35.0,29.71,SSE,160,4.1,9.8,29,0.00,,,0.00,WSDL version 420,2013-01-28 23:22:00,
2013-01-28 17:28:00,68.1,35.5,29.71,South,184,3.5,10.5,30,0.00,,,0.00,WSDL version 420,2013-01-28 23:28:00,
2013-01-28 17:34:00,67.8,36.7,29.71,SSE,163,5.9,10.5,32,0.00,,,0.00,WSDL version 420,2013-01-28 23:34:00,
2013-01-28 17:40:00,67.6,37.5,29.71,SSE,154,4.8,8.5,33,0.00,,,0.00,WSDL version 420,2013-01-28 23:40:00,
2013-01-28 17:46:00,67.3,37.3,29.71,SSE,165,6.3,10.3,33,0.00,,,0.00,WSDL version 420,2013-01-28 23:46:00,
2013-01-28 17:52:00,67.2,37.1,29.71,SSE,154,6.0,10.5,33,0.00,,,0.00,WSDL version 420,2013-01-28 23:52:00,
2013-01-28 17:58:00,67.0,37.0,29.71,SSE,149,6.0,12.1,33,0.00,,,0.00,WSDL version 420,2013-01-28 23:58:00,
2013-01-28 18:04:00,67.0,37.4,29.71,SSE,162,5.3,12.1,34,0.00,,,0.00,WSDL version 420,2013-01-29 00:04:00,
2013-01-28 18:10:00,66.9,37.7,29.71,SSE,158,6.4,12.8,34,0.00,,,0.00,WSDL version 420,2013-01-29 00:10:00,
2013-01-28 18:16:00,66.8,37.6,29.71,SSE,161,7.1,12.8,34,0.00,,,0.00,WSDL version 420,2013-01-29 00:16:00,
2013-01-28 18:22:00,66.7,37.5,29.71,SSE,167,6.8,9.8,34,0.00,,,0.00,WSDL version 420,2013-01-29 00:22:00,
2013-01-28 18:28:00,66.6,37.4,29.71,South,170,4.2,8.5,34,0.00,,,0.00,WSDL version 420,2013-01-29 00:28:00,
2013-01-28 18:34:00,66.4,37.2,29.71,SSE,160,4.8,6.9,34,0.00,,,0.00,WSDL version 420,2013-01-29 00:34:00,
2013-01-28 18:40:00,66.4,37.2,29.71,SSE,168,2.9,7.6,34,0.00,,,0.00,WSDL version 420,2013-01-29 00:40:00,
2013-01-28 18:46:00,66.3,37.1,29.71,SSE,164,6.0,8.5,34,0.00,,,0.00,WSDL version 420,2013-01-29 00:46:00,
2013-01-28 18:52:00,66.4,37.2,29.71,South,180,5.1,12.3,34,0.00,,,0.00,WSDL version 420,2013-01-29 00:52:00,
2013-01-28 18:58:00,66.2,37.0,29.68,SSE,166,4.0,7.8,34,0.00,,,0.00,WSDL version 420,2013-01-29 00:58:00,
2013-01-28 19:04:00,66.1,37.0,29.68,SSE,158,4.2,6.5,34,0.00,,,0.00,WSDL version 420,2013-01-29 01:04:00,
2013-01-28 19:10:00,66.0,36.9,29.68,SSE,153,5.3,8.5,34,0.00,,,0.00,WSDL version 420,2013-01-29 01:10:00,
2013-01-28 19:16:00,66.0,36.9,29.68,SE,143,4.7,8.7,34,0.00,,,0.00,WSDL version 420,2013-01-29 01:16:00,
2013-01-28 19:22:00,65.8,36.7,29.68,SSE,148,7.0,9.8,34,0.00,,,0.00,WSDL version 420,2013-01-29 01:22:00,
2013-01-28 19:28:00,65.8,36.7,29.68,SSE,149,7.4,13.2,34,0.00,,,0.00,WSDL version 420,2013-01-29 01:28:00,
2013-01-28 19:34:00,65.8,36.7,29.68,SSE,154,7.5,15.2,34,0.00,,,0.00,WSDL version 420,2013-01-29 01:34:00,
2013-01-28 19:40:00,65.7,36.6,29.68,SE,146,5.2,15.2,34,0.00,,,0.00,WSDL version 420,2013-01-29 01:40:00,
2013-01-28 19:46:00,65.7,36.6,29.68,SSE,154,6.8,10.3,34,0.00,,,0.00,WSDL version 420,2013-01-29 01:46:00,
2013-01-28 19:52:00,65.7,36.6,29.68,SSE,158,8.4,12.3,34,0.00,,,0.00,WSDL version 420,2013-01-29 01:52:00,
2013-01-28 19:58:00,65.6,36.5,29.68,SSE,158,6.9,12.3,34,0.00,,,0.00,WSDL version 420,2013-01-29 01:58:00,
2013-01-28 20:04:00,65.5,36.4,29.68,SSE,160,7.7,13.2,34,0.00,,,0.00,WSDL version 420,2013-01-29 02:04:00,
2013-01-28 20:10:00,65.4,36.3,29.68,SSE,152,6.6,13.2,34,0.00,,,0.00,WSDL version 420,2013-01-29 02:10:00,
2013-01-28 20:16:00,65.2,36.1,29.68,SSE,151,6.6,9.8,34,0.00,,,0.00,WSDL version 420,2013-01-29 02:16:00,
2013-01-28 20:22:00,65.1,36.1,29.68,SSE,152,6.2,9.8,34,0.00,,,0.00,WSDL version 420,2013-01-29 02:22:00,
2013-01-28 20:28:00,65.1,36.1,29.68,SSE,151,6.3,9.8,34,0.00,,,0.00,WSDL version 420,2013-01-29 02:28:00,
2013-01-28 20:34:00,65.0,36.0,29.68,SSE,151,8.8,11.0,34,0.00,,,0.00,WSDL version 420,2013-01-29 02:34:00,
2013-01-28 20:40:00,65.1,36.5,29.68,SSE,148,7.5,11.0,35,0.00,,,0.00,WSDL version 420,2013-01-29 02:40:00,
2013-01-28 20:46:00,65.1,36.6,29.68,SSE,152,7.7,10.7,35,0.00,,,0.00,WSDL version 420,2013-01-29 02:46:00,
2013-01-28 20:52:00,64.9,36.7,29.68,SE,146,6.3,10.7,35,0.00,,,0.00,WSDL version 420,2013-01-29 02:52:00,
2013-01-28 20:58:00,64.8,36.6,29.68,SSE,149,7.2,9.8,35,0.00,,,0.00,WSDL version 420,2013-01-29 02:58:00,
2013-01-28 21:04:00,64.8,36.5,29.68,SSE,150,7.6,14.8,35,0.00,,,0.00,WSDL version 420,2013-01-29 03:04:00,
2013-01-28 21:10:00,64.8,36.5,29.68,SSE,154,6.3,12.3,35,0.00,,,0.00,WSDL version 420,2013-01-29 03:10:00,
2013-01-28 21:16:00,64.8,36.5,29.68,SSE,161,9.1,13.2,35,0.00,,,0.00,WSDL version 420,2013-01-29 03:16:00,
2013-01-28 21:22:00,64.8,36.5,29.68,SSE,162,6.1,13.6,35,0.00,,,0.00,WSDL version 420,2013-01-29 03:22:00,
2013-01-28 21:28:00,64.8,36.5,29.68,SSE,151,6.2,9.6,35,0.00,,,0.00,WSDL version 420,2013-01-29 03:28:00,
2013-01-28 21:34:00,64.8,36.6,29.68,SE,146,7.0,13.0,36,0.00,,,0.00,WSDL version 420,2013-01-29 03:34:00,
2013-01-28 21:40:00,64.8,37.2,29.68,SSE,153,7.7,13.0,36,0.00,,,0.00,WSDL version 420,2013-01-29 03:40:00,
2013-01-28 21:46:00,64.7,37.2,29.68,SSE,160,6.5,11.0,36,0.00,,,0.00,WSDL version 420,2013-01-29 03:46:00,
2013-01-28 21:52:00,64.6,37.1,29.68,SE,143,9.2,14.8,36,0.00,,,0.00,WSDL version 420,2013-01-29 03:52:00,
2013-01-28 21:58:00,64.6,37.1,29.68,SSE,149,8.1,14.5,36,0.00,,,0.00,WSDL version 420,2013-01-29 03:58:00,
2013-01-28 22:04:00,64.6,37.1,29.68,SE,146,8.1,12.3,36,0.00,,,0.00,WSDL version 420,2013-01-29 04:04:00,
2013-01-28 22:10:00,64.6,37.1,29.68,SSE,158,9.0,13.2,36,0.00,,,0.00,WSDL version 420,2013-01-29 04:10:00,
2013-01-28 22:16:00,64.7,37.3,29.68,SSE,164,6.3,13.2,36,0.00,,,0.00,WSDL version 420,2013-01-29 04:16:00,
2013-01-28 22:22:00,64.6,37.1,29.68,South,173,6.2,10.5,36,0.00,,,0.00,WSDL version 420,2013-01-29 04:22:00,
2013-01-28 22:28:00,64.6,37.0,29.71,SSE,160,5.3,11.0,36,0.00,,,0.00,WSDL version 420,2013-01-29 04:28:00,
2013-01-28 22:34:00,64.4,37.5,29.71,SSE,163,4.9,11.0,37,0.00,,,0.00,WSDL version 420,2013-01-29 04:34:00,
2013-01-28 22:40:00,64.4,37.6,29.71,SSE,166,7.2,13.0,37,0.00,,,0.00,WSDL version 420,2013-01-29 04:40:00,
2013-01-28 22:46:00,64.4,37.6,29.71,SSE,160,7.0,13.0,37,0.00,,,0.00,WSDL version 420,2013-01-29 04:46:00,
2013-01-28 22:52:00,64.4,37.6,29.71,SSE,158,5.7,13.0,37,0.00,,,0.00,WSDL version 420,2013-01-29 04:52:00,
2013-01-28 22:58:00,64.4,37.6,29.68,SSE,160,7.1,13.0,37,0.00,,,0.00,WSDL version 420,2013-01-29 04:58:00,
2013-01-28 23:03:00,64.4,37.6,29.68,SSE,152,6.2,10.7,37,0.00,,,0.00,WSDL version 420,2013-01-29 05:03:00,
2013-01-28 23:06:00,64.4,37.6,29.68,SSE,158,8.4,12.1,37,0.00,,,0.00,WSDL version 420,2013-01-29 05:06:00,
2013-01-28 23:12:00,64.4,37.6,29.68,SSE,163,6.7,14.5,37,0.00,,,0.00,WSDL version 420,2013-01-29 05:12:00,
2013-01-28 23:18:00,64.2,37.8,29.68,SE,143,5.9,14.5,38,0.00,,,0.00,WSDL version 420,2013-01-29 05:18:00,
2013-01-28 23:24:00,64.2,38.1,29.68,SSE,164,6.6,11.0,38,0.00,,,0.00,WSDL version 420,2013-01-29 05:24:00,
2013-01-28 23:27:00,64.1,38.0,29.68,SSE,160,5.9,10.1,38,0.00,,,0.00,WSDL version 420,2013-01-29 05:27:00,
2013-01-28 23:33:00,64.0,37.9,29.68,SSE,154,7.9,10.3,38,0.00,,,0.00,WSDL version 420,2013-01-29 05:33:00,
2013-01-28 23:39:00,64.0,37.9,29.68,SSE,151,7.3,13.9,38,0.00,,,0.00,WSDL version 420,2013-01-29 05:39:00,
2013-01-28 23:45:00,63.9,37.8,29.68,SSE,158,7.9,13.9,38,0.00,,,0.00,WSDL version 420,2013-01-29 05:45:00,
2013-01-28 23:51:00,63.8,37.7,29.68,SSE,163,7.9,15.4,38,0.00,,,0.00,WSDL version 420,2013-01-29 05:51:00,
2013-01-28 23:57:00,63.6,37.5,29.68,SSE,154,6.1,15.4,38,0.00,,,0.00,WSDL version 420,2013-01-29 05:57:00,